This demonstration page uses our WeatherBlox Daily Observations layout. Learn more.

Left ArrowRight Arrow

Hourly Observations for November 26, 2021

Temp ( °F °C ) Dew Point ( °F °C ) Humidity (%) Winds ( mph kmh ) Pressure ( in mb ) Visibility ( mi km ) Precip ( " mm )
12:51 am 00:51 Cloudy 46 7.8 37 2.8 71 71 E 6 9 30.32 1027 10 16 N/A
1:51 am 01:51 Clear 43 6.1 36 2.2 76 76 E 7 11 30.31 1026 10 16 N/A
2:51 am 02:51 Clear 42 5.6 36 2.2 79 79 E 6 9 30.30 1026 10 16 N/A
3:51 am 03:51 Clear 42 5.6 36 2.2 79 79 ESE 8 13 30.28 1026 10 16 N/A
4:51 am 04:51 Partly Cloudy 41 5 35 1.7 79 79 ESE 7 11 30.28 1026 10 16 N/A
5:51 am 05:51 Cloudy 44 6.7 36 2.2 73 73 ESE 9 15 30.27 1025 10 16 N/A
6:51 am 06:51 Clear 43 6.1 36 2.2 76 76 ESE 10 17 30.27 1025 10 16 N/A
7:51 am 07:51 Sunny 46 7.8 37 2.8 71 71 ESE 10 17 30.28 1025 10 16 N/A
8:51 am 08:51 Sunny 50 10 36 2.2 59 59 SE 13 20 30.28 1025 10 16 N/A
9:51 am 09:51 Sunny 53 11.7 30 -1.1 41 41 SSE 12 19 30.28 1025 10 16 N/A
10:51 am 10:51 Sunny 56 13.3 30 -1.1 37 37 S 9 15 30.24 1024 10 16 N/A
11:51 am 11:51 Sunny 58 14.4 30 -1.1 35 35 S 7 11 30.19 1023 10 16 N/A
12:51 pm 12:51 Sunny 62 16.7 30 -1.1 30 30 S 13 20 30.13 1020 10 16 N/A
1:51 pm 13:51 Sunny 62 16.7 30 -1.1 30 30 SE 9 15 30.08 1019 10 16 N/A
2:51 pm 14:51 Sunny 63 17.2 30 -1.1 29 29 S 12 19 30.06 1018 10 16 N/A
3:51 pm 15:51 Sunny 62 16.7 30 -1.1 30 30 S 13 20 30.06 1018 10 16 N/A
4:51 pm 16:51 Sunny 59 15 30 -1.1 33 33 SSE 5 7 30.07 1018 10 16 N/A
5:51 pm 17:51 Clear 53 11.7 29 -1.7 40 40 E 3 6 30.07 1018 10 16 N/A
6:51 pm 18:51 Clear 51 10.6 29 -1.7 43 43 ESE 6 9 30.09 1019 10 16 N/A
7:51 pm 19:51 Clear 50 10 29 -1.7 44 44 E 6 9 30.09 1019 10 16 N/A
8:51 pm 20:51 Clear 48 8.9 29 -1.7 48 48 ESE 7 11 30.07 1018 10 16 N/A
9:51 pm 21:51 Clear 47 8.3 30 -1.1 52 52 E 8 13 30.07 1018 10 16 N/A
10:51 pm 22:51 Clear 46 7.8 30 -1.1 54 54 ESE 8 13 30.07 1018 10 16 N/A
11:51 pm 23:51 Clear 43 6.1 29 -1.7 58 58 E 6 9 30.07 1018 10 16 N/A

Powered by AerisWeather